Regional Weather Roundup
Issued by NWS

Home | Current Version | Previous Version | Text Only | Print | Product List | Glossary On
Versions: 1 2 3 4 5 6 7 8 9 10 11 12 13 14 15 16 17 18 19 20 21 22 23 24 25 26 27 28 29 30 31 32 33 34 35 36 37 38 39 40 41 42 43 44 45 46 47 48 49 50
000
ASUS44 KLUB 211201
RWRTX
WEST TEXAS WEATHER ROUNDUP
NATIONAL WEATHER SERVICE LUBBOCK TX
700 AM CDT MON APR 21 2014

NOTE: "FAIR" INDICATES FEW OR NO CLOUDS BELOW 12,000 FEET WITH NO
SIGNIFICANT WEATHER AND/OR OBSTRUCTIONS TO VISIBILITY.

TXZ004-006>008-010-012-014-016-OKZ002-211300-
TEXAS PANHANDLE/OKLAHOMA PANHANDLE

CITY           SKY/WX    TMP DP  RH WIND       PRES   REMARKS
AMARILLO       CLEAR     52  46  80 NW12      30.04R
BORGER         CLEAR     51  49  92 W5        30.02R
DALHART        CLEAR     49  41  74 NW8       30.08R
GUYMON         CLEAR     52  46  80 NW8       30.01R
$$

TXZ026-029-035-045-048-211300-
SOUTHERN PANHANDLE/SOUTH PLAINS/ROLLING PLAINS

CITY           SKY/WX    TMP DP  RH WIND       PRES   REMARKS
CHILDRESS      CLOUDY    60  60 100 NW7       29.96R
LUBBOCK        PTCLDY    50  46  86 W6        30.03R
$$

TXZ052-054-060>062-072-078-127-140-154-169-211300-
PERMIAN BASIN/CONCHO VALLEY/BIG COUNTRY/EDWARDS PLATEAU

CITY           SKY/WX    TMP DP  RH WIND       PRES   REMARKS
ABILENE        CLEAR     64  60  87 SW8       29.98S
BROWNWOOD      CLOUDY    64  63  94 S7        30.02R
JUNCTION       CLOUDY    67  62  84 SW14G20   30.04R
MIDLAND        CLOUDY    63  61  93 SW16      30.04R
ODESSA         CLOUDY    62  60  93 S10       30.06R FOG
SAN ANGELO     CLOUDY    68  62  81 SW16G23   30.02R
WINK           CLOUDY    57  56  96 NE3       30.04R
$$

TXZ055-058-074-075-080-082-211300-
FAR WEST/SOUTHWEST MOUNTAINS/TRANS PECOS

CITY           SKY/WX    TMP DP  RH WIND       PRES   REMARKS
DRYDEN           N/A     69  64  84 CALM      30.04R
EL PASO        PTCLDY    56  43  61 S6        30.10R
FORT STOCKTON  CLEAR     58  54  86 SW10      30.06R
GUADALUPE PASS CLEAR     56  35  45 S7        30.18R
MARFA          CLEAR     43  36  75 N8        30.18S
PECOS          CLEAR     53  45  72 SW5       30.05R
$$

TXZ014-016-019-021>030-083-211300
TEXAS TECH WEST TEXAS MESONET/TEXAS PANHANDLE/NORTHERN SOUTH PLAINS

CITY           SKY/WX    TMP DP  RH WIND       PRES   REMARKS
ABERNATHY 5ENE   N/A     48  44  86 W6        30.03S
AMARILLO 9NNE    N/A     48  47  95 CALM      30.04R
AMARILLO 7SSE    N/A     52  46  79 NW12      30.04R
AMHERST 1NE      N/A     49  45  85 NW8       30.05R
BOOTLEG 11WNW    N/A     53  42  66 NW12      30.11R
CANADIAN 6E      N/A     58  57  98 NW5       29.97R
CAPROCK CYN SP   N/A     56  47  71 W12       29.99R
CHILDRESS 2NNE   N/A     60  59  98 NW5       29.95R
CLARENDON 2WSW   N/A     54  52  94 NW5       29.99R
CLAUDE 12SW      N/A     51  47  88 NW14      30.01R
DIMMITT 2NE      N/A     49  42  79 W12       30.06R
FLOYDADA 2NNE    N/A     46  43  92 W8        30.01S
FRIONA 2NE       N/A     46  41  84 NW7       30.09R
GOODLETT 3W      N/A     62  60  93 W2        29.93R
HART 3N          N/A     50  43  76 NW14      30.04S
HEREFORD 2NW     N/A     49  42  75 NW9       30.07R
MCLEAN 1E        N/A     55  54  98 NW9       29.97S
MEMPHIS 1NE      N/A     56  55  97 NW2       29.97R
MULESHOE 2SSW    N/A     46  43  91 W7        30.07R
OLTON 6S         N/A     49  43  79 NW12      30.04R
PALO DURO SP     N/A     55  45  70 NW12      30.03R
PAMPA 2E         N/A     52  51  99 W8        30.00S
PLAINVIEW 1S     N/A     49  45  84 W7        30.02R
SILVERTON 7ESE   N/A     45  44  95 W10       30.01R
TULIA 2ENE       N/A     51  43  74 W13       30.02R
TURKEY 2WSW      N/A     54  53  98 NW2       29.97S
UMBARGER 3NNE    N/A     46  42  84 W10       30.05R
$$

TXZ033>036-039>041-045>048-211300
TEXAS TECH WEST TEXAS MESONET/SOUTH PLAINS

CITY           SKY/WX    TMP DP  RH WIND       PRES   REMARKS
AIKEN 3WSW       N/A     45  43  91 W8        30.03S
ANDREWS 2NE      N/A     60  57  91 S8        30.05S
BROWNFIELD 2S    N/A     49  45  84 W5        30.04R
DENVR CTY 7WNW   N/A     49  43  79 NW8       30.06S
GAIL 2ESE        N/A     62  58  87 SW8       30.02R
LAMESA 2SE       N/A     54  53  97 SW5       30.05R
LEVELLAND 4S     N/A     49  41  74 W6        30.05R
LUBBOCK 3WNW     N/A     51  45  80 W3        30.04R
MORTON 1ENE      N/A     48  43  82 NW7       30.06R
ODONNELL 1N      N/A     50  49  94 SW7       30.04R
PLAINS 3N        N/A     50  43  76 NW8       30.07R
RALLS 1SE        N/A     50  45  83 W7        30.02S
REESE CENTER     N/A     48  44  84 NW7       30.04R
SEAGRAVES 1SW    N/A     47  45  91 W5        30.05R
SEMINOLE 2NNE    N/A     52  47  84 W5        30.06R
SLATON 2NE       N/A     51  45  80 W9        30.03R
SNYDER 3E        N/A     61  59  92 SW9       30.01R
SUNDOWN 8SW      N/A     48  41  75 W9        30.06R
TAHOKA 3NNE      N/A     50  45  84 W8        30.02R
WOLFFORTH 6SSW   N/A     52  45  76 NW3       30.04S
$$

TXZ031-032-036>038-042>044-211300-
TEXAS TECH WEST TEXAS MESONET/ROLLING PLAINS

CITY           SKY/WX    TMP DP  RH WIND       PRES   REMARKS
ASPERMONT 3NE    N/A     63  59  88 SW9       29.97R
FLUVANNA 3WNW    N/A     61  57  86 SW14      30.02R
GRAHAM 5SSW      N/A     55  53  92 SW8       30.02R
GUTHRIE 10WSW    N/A     60  58  91 S7        29.96R
HASKELL 1NW      N/A     62  60  93 SW9       29.95S
JAYTON 1SSE      N/A     60  58  92 SW7       29.98R
KNOX CITY 3NW    N/A     62  58  85 SW8       29.95R
LK A HENRY 1NW   N/A     61  59  91 SW9       30.00R
NORTHFIELD 1S    N/A     57  56  98 W7        29.97R
ODELL 4ENE       N/A     63  62  96 S6        29.93S
PADUCAH 10SW     N/A     57  54  89 W6        29.96R
POST 1NE         N/A     57  56  95 SW9       30.00R
RRING SPRGS 3N   N/A     54  49  83 W10       29.98R
SEYMOUR 3NW      N/A     65  61  87 S9        29.94R
SPUR 1W          N/A     56  54  94 SW6       29.98R
WEINERT 2NNE     N/A     62  60  92 SW8       29.95S
WHITE RVR 6NE    N/A     57  46  65 W10       29.99S
$$

TXZ052-054-060>062-072-078-127-140-154-169-211300-
TEXAS TECH WEST TEXAS MESONET/PERMIAN BASIN/
CONCHO VALLEY/BIG COUNTRY/EDWARDS PLATEAU

CITY           SKY/WX    TMP DP  RH WIND       PRES   REMARKS
COYANOSA 2N      N/A     54  53  95 S3        30.04S
JUNCTION 1SSW    N/A     67  62  85 S9        30.05R
MERTZON 3NNE     N/A     66  62  87 S18       30.02S
SAN ANGELO 7NW   N/A     67  61  80 S10       30.02S
STRLNG CT 4WSW   N/A     64  61  90 S8        30.03R
ST LAWRNCE 5SW   N/A     61  60  97 S10       30.03S
SWEETWATR 11SW   N/A     64  60  89 SW9       30.03R
WALL 1E          N/A     65  61  85 SW6       30.02S
$$

TXZ055-058-074-075-080-082-211300-
TEXAS TECH WEST TEXAS MESONET/FAR WEST/SOUTHWEST MOUNTAINS/TRANS PECOS

CITY           SKY/WX    TMP DP  RH WIND       PRES   REMARKS
PRSMN GAP BBNP   N/A     63  59  88 N5        30.08R
$$



USA.gov is the U.S. government's official web portal to all federal, state and local government web resources and services.